Regional Weather Roundup
Issued by NWS

Home | Current Version | Previous Version | Graphics & Text | Print | Product List | Glossary On
Versions: 1 2 3 4 5 6 7 8 9 10 11 12 13 14 15 16 17 18 19 20 21 22 23 24 25 26 27 28 29 30 31 32 33 34 35 36 37 38 39 40 41 42 43 44 45 46 47 48 49 50
000
ASUS44 KMEG 230110
RWRTN
TENNESSEE HOURLY STATE WEATHER ROUNDUP
NATIONAL WEATHER SERVICE MEMPHIS TN
800 PM CDT MON SEP 22 2014

TNZ002-004-019-021-049-052-054-088>092-230200-
WEST TENNESSEE

CITY           SKY/WX    TMP DP  RH WIND       PRES   REMARKS
MEMPHIS INTL   PTCLDY    69  53  56 N8        30.17R
NWS MEMPHIS      N/A     67 N/A N/A MISG        N/A
JACKSON        CLEAR     63  50  62 NE3       30.18R
DYERSBURG      CLEAR     63  43  48 N7        30.21R
UNION CITY     CLEAR     59  48  67 CALM      30.20R
PARIS          CLEAR     55  45  67 N5        30.21R
HUNTINGDON     CLEAR     61  45  55 N3        30.20R
LEXINGTON      CLEAR     61  50  67 N5        30.17S
SAVANNAH       CLEAR     61  54  77 CALM      30.17R
$$

TNZ008-025-027-028-033-062-065-066-230200-
NORTH MIDDLE TENNESSEE

CITY           SKY/WX    TMP DP  RH WIND       PRES   REMARKS
NASHVILLE      CLEAR     64  46  52 NE7       30.19R
DICKSON        CLEAR     57  46  67 N5        30.19R
PORTLAND       CLEAR     59  46  63 CALM      30.20R
CLARKSVILLE    CLEAR     60  45  57 N7        30.20R
LEBANON        CLEAR     63  44  49 N3        30.18R
SMYRNA         CLEAR     63  48  57 N7        30.21R
MURFREESBORO   CLEAR     63  45  51 N5        30.19R
COOKEVILLE     CLEAR     50  48  93 CALM      30.19S
GALLATIN       CLEAR     60  48  64 NE5       30.21R
CROSSVILLE     CLEAR     60  48  64 N5        30.22R
$$

TNZ061-075-076-078-094-096-097-230200-
SOUTH MIDDLE TENNESSEE

CITY           SKY/WX    TMP DP  RH WIND       PRES   REMARKS
LEWISBURG      CLEAR     60  46  59 NE6       30.18R
FAYETTEVILLE   CLEAR     61  43  51 NE8       30.17R
TULLAHOMA      CLEAR     57  46  67 NW3       30.19R
WINCHESTER     CLEAR     61  46  59 CALM      30.18R
MCMINNVILLE    CLEAR     57  50  77 N3        30.19R
COLUMBIA       CLEAR     64  48  55 NE3       30.17R
SHELBYVILLE    CLEAR     63  46  55 NE7       30.20R
$$

TNZ017-018-042-046-047-230200-
NORTHEAST TENNESSEE

CITY           SKY/WX    TMP DP  RH WIND       PRES   REMARKS
TRI CITIES     PTCLDY    56  47  71 CALM      30.20R
ELIZABETHTON   CLEAR     55  48  76 CALM      30.21R
$$

TNZ012-013-036-069-073-074-230200-
CENTRAL EAST TENNESSEE

CITY           SKY/WX    TMP DP  RH WIND       PRES   REMARKS
KNOXVILLE      CLEAR     63  50  62 N10       30.16R
OAK RIDGE      CLEAR     61  48  62 CALM      30.20R
GATLINBURG     CLEAR     59  50  72 CALM      30.17R
MORRISTOWN     CLEAR     59  50  72 CALM      30.20R
$$

TNZ083-085-099-230200-
SOUTHEAST TENNESSEE

CITY           SKY/WX    TMP DP  RH WIND       PRES   REMARKS
CHATTANOOGA    CLEAR     68  49  50 N10       30.14R
$$

SKY/WX REPORTED AS FAIR MEANS FEW OR NO CLOUDS BELOW
12 THOUSAND FEET.



USA.gov is the U.S. government's official web portal to all federal, state and local government web resources and services.